CHAR37 Weather Reports


time (UTC)temp
C
wind
direction
speed
KPH
gust
KPH
rain 1hr
cm
rain 24hr
cm
rain mn
cm
humidity
%
barometer
mb
20260506091556 10 164 14.5 22.5 0.00 0.00 0.00 88 1009.0
20260506090055 10 173 14.5 24.1 0.00 0.00 0.00 88 1008.9
20260506084607 10 165 12.9 20.9 0.00 0.00 0.00 88 1008.9
20260506083051 9 160 9.7 16.1 0.00 0.00 0.00 88 1008.9
20260506081556 9 167 11.3 17.7 0.00 0.00 0.00 88 1008.8
20260506073051 10 173 17.7 25.7 0.00 0.00 0.00 87 1008.7
20260506071550 10 175 16.1 25.7 0.00 0.00 0.00 86 1008.4
20260506044653 10 164 17.7 25.7 0.00 0.00 0.00 85 1008.5
20260506043047 10 186 12.9 22.5 0.00 0.00 0.00 85 1008.7
20260506041559 10 146 19.3 24.1 0.00 0.00 0.00 85 1008.0
20260506040050 10 175 16.1 29.0 0.00 0.00 0.00 85 1008.3
20260506034621 10 173 17.7 27.4 0.00 0.00 0.00 85 1008.2
20260506033057 10 174 19.3 29.0 0.00 0.00 0.00 85 1007.8
20260506031552 10 176 17.7 27.4 0.00 0.00 0.00 85 1008.1
20260506030052 10 178 14.5 19.3 0.00 0.00 0.00 84 1008.2
20260506024743 10 167 12.9 22.5 0.00 0.00 0.00 83 1008.3
20260505213052 12 178 30.6 46.7 0.00 0.00 0.00 79 1004.5
20260505211600 12 173 32.2 45.1 0.00 0.00 0.00 78 1004.4
20260505210050 12 161 29.0 38.6 0.00 0.00 0.00 80 1004.4
20260505204600 12 165 27.4 38.6 0.00 0.00 0.00 80 1004.5
20260505203049 11 165 27.4 38.6 0.00 0.00 0.00 81 1004.4
20260505201551 12 167 29.0 43.5 0.00 0.00 0.00 80 1004.7
20260505200049 12 192 25.7 43.5 0.00 0.00 0.00 80 1004.6
20260505194549 11 169 25.7 41.8 0.00 0.00 0.00 81 1004.9
20260505193049 12 186 25.7 38.6 0.00 0.00 0.00 82 1005.3
20260505191555 11 194 27.4 40.2 0.00 0.00 0.00 83 1005.6
20260505190048 11 172 24.1 30.6 0.00 0.00 0.00 82 1005.6
20260505184548 11 180 20.9 33.8 0.00 0.00 0.00 83 1005.8
20260505183048 11 179 19.3 29.0 0.00 0.00 0.00 82 1006.0
20260505182049 12 180 22.5 45.1 0.00 0.00 0.00 81 1006.0
20260505124550 9 171 17.7 22.5 0.00 0.00 0.00 86 1008.3
20260505123107 9 171 16.1 22.5 0.00 0.00 0.00 86 1008.1
20260505121546 9 171 16.1 25.7 0.00 0.00 0.00 86 1008.3
20260505120051 9 173 17.7 24.1 0.00 0.00 0.00 86 1008.4